Simultaneous Nadir Overpasses (SNOs) Predictions

Prediction of SNOs between NPP and PACE Satellite Orbit:

Table of predicted SNOs for the next 14.0 days since TLE Epoch: 5/4/2024
Index Date (NPP) Time (NPP) Lat,Lon (NPP) SZA (NPP ) Date (PACE) Time (PACE) Lat,Lon (PACE) SZA (PACE ) Distance(km) Time Diff (sec)
1 05/04/2024 23:00:06 -80.04, -24.12 114.07 05/04/2024 23:01:16 -80.04, -24.11 114.11 0.19 70
2 05/04/2024 23:50:46 79.89, 144.71 65.64 05/04/2024 23:50:22 79.89, 144.76 65.65 1.09 24
3 05/07/2024 03:26:29 -80.00, -90.25 114.77 05/07/2024 03:27:35 -80.00, -90.39 114.78 2.87 66
4 05/07/2024 04:17:08 79.82, 78.83 64.89 05/07/2024 04:16:40 79.82, 78.73 64.92 2.07 28
5 05/09/2024 07:52:54 -80.01,-157.01 115.32 05/09/2024 07:53:55 -80.02,-157.09 115.34 1.65 61
6 05/09/2024 08:43:33 79.84, 12.06 64.34 05/09/2024 08:43:00 79.84, 12.01 64.36 1.04 33
7 05/11/2024 12:19:18 -80.00, 136.50 115.91 05/11/2024 12:20:14 -80.01, 136.37 115.91 2.80 56
8 05/11/2024 13:09:56 79.80, -54.17 63.71 05/11/2024 13:09:18 79.80, -54.28 63.74 2.37 38
9 05/13/2024 16:45:43 -80.02, 69.67 116.40 05/13/2024 16:46:33 -80.03, 69.69 116.43 0.33 50
10 05/13/2024 17:36:21 79.82,-121.00 63.21 05/13/2024 17:35:37 79.82,-120.98 63.23 0.51 44
11 05/15/2024 21:12:07 -80.02, 3.12 116.92 05/15/2024 21:12:51 -80.02, 3.17 116.95 0.91 44
12 05/15/2024 22:02:45 79.82, 172.43 62.70 05/15/2024 22:01:55 79.81, 172.47 62.71 0.92 50
13 05/18/2024 01:38:30 -79.99, -63.17 117.46 05/18/2024 01:39:08 -79.99, -63.20 117.47 0.80 38



Historial Predications of SNOs between NPP and PACE
